Simultaneous Nadir Overpasses (SNOs) Predictions

Prediction of SNOs between METOP-A and NOAA-19 Satellite Orbit:

Table of predicted SNOs for the next 14.0 days since TLE Epoch: 6/6/2013
Index Date (METOP-A) Time (METOP-A) Lat,Lon (METOP-A) SZA (METOP-A ) Date (NOAA-19) Time (NOAA-19) Lat,Lon (NOAA-19) SZA (NOAA-19 ) Distance(km) Time Diff (sec)
1 06/08/2013 12:32:19 73.99, -13.72 51.10 06/08/2013 12:31:11 74.03, -16.19 51.25 75.92 68
2 06/08/2013 13:23:11 -73.47, 152.38 129.38 06/08/2013 13:21:59 -73.47, 152.43 129.37 1.53 72
3 06/08/2013 14:13:51 73.47, -40.29 50.62 06/08/2013 14:13:04 73.47, -40.33 50.63 1.50 47
4 06/08/2013 15:04:33 -73.45, 126.99 129.41 06/08/2013 15:04:03 -73.44, 126.97 129.41 0.77 30
5 06/08/2013 15:55:13 73.45, -65.68 50.59 06/08/2013 15:55:08 73.44, -65.79 50.59 3.61 5
6 06/08/2013 16:45:55 -73.43, 101.60 129.43 06/08/2013 16:46:07 -73.42, 101.52 129.44 2.81 12
7 06/08/2013 17:36:36 73.38, -91.18 50.52 06/08/2013 17:37:11 73.36, -91.13 50.50 2.16 35
8 06/08/2013 18:27:18 -73.35, 76.10 129.50 06/08/2013 18:28:10 -73.34, 76.18 129.53 2.94 52
9 06/08/2013 19:18:01 73.20,-116.91 50.36 06/08/2013 19:19:13 73.24,-116.36 50.36 18.01 72
10 06/18/2013 13:15:55 -74.02, 155.47 129.38 06/18/2013 13:14:47 -74.08, 152.85 129.21 80.27 68
11 06/18/2013 14:06:45 73.51, -38.42 50.15 06/18/2013 14:05:37 73.49, -38.46 50.15 2.29 68
12 06/18/2013 14:57:28 -73.46, 128.79 129.90 06/18/2013 14:56:39 -73.47, 128.82 129.88 1.83 49
13 06/18/2013 15:48:08 73.43, -63.93 50.08 06/18/2013 15:47:41 73.46, -63.91 50.12 3.28 27
14 06/18/2013 16:38:50 -73.43, 103.40 129.92 06/18/2013 16:38:43 -73.44, 103.37 129.91 1.48 7
15 06/18/2013 17:29:30 73.41, -89.32 50.06 06/18/2013 17:29:44 73.39, -89.26 50.03 3.22 14
16 06/18/2013 18:20:12 -73.41, 78.01 129.94 06/18/2013 18:20:47 -73.42, 77.91 129.94 3.21 35
17 06/18/2013 19:10:52 73.39,-114.71 50.04 06/18/2013 19:11:48 73.36,-114.72 50.01 2.81 56
18 06/18/2013 20:01:36 -73.29, 52.39 130.05 06/18/2013 20:02:50 -73.34, 52.57 130.02 8.10 74




NCC Satellite Simultaneous Nadir Overpasses (SNOs) Prediction Service
